When you browse on this site, cookies collect data to enhance your experience and personalize the content and advertising you see.
Visit our Privacy Policy to learn more. By continuing to use the site, you agree to this use of cookies and data.
  • In Hungary
  • List of Countries
  • For 7 days
  • Water Temperature
  • Satellite Maps
  • Weather Map
  • News
  • Weather Widgets
  • user-avatar
    Login

    Hourly Weather Sandown

    Today, 26 March, Tuesday

    Time Temperature Precipitation Wind Pressure Humidity
    00:00 +5°C° 0 mm 3 mps 775 mmHg 79%
    01:00 +6°C° 0 mm 2 mps 775 mmHg 81%
    02:00 +5°C° 0 mm 2 mps 775 mmHg 82%
    03:00 +6°C° 0 mm 1 mps 774 mmHg 83%
    04:00 +6°C° 0 mm 1 mps 774 mmHg 83%
    05:00 +6°C° 0 mm 1 mps 774 mmHg 83%
    06:00 +5°C° 0 mm 1 mps 774 mmHg 84%
    07:00 +6°C° 0 mm 2 mps 775 mmHg 78%
    08:00 +7°C° 0 mm 2 mps 775 mmHg 72%
    09:00 +8°C° 0 mm 2 mps 775 mmHg 67%
    10:00 +9°C° 0 mm 2 mps 775 mmHg 64%
    11:00 +10°C° 0 mm 2 mps 775 mmHg 61%
    12:00 +12°C° 0 mm 2 mps 774 mmHg 58%
    13:00 +13°C° 0 mm 2 mps 774 mmHg 58%
    14:00 +12°C° 0 mm 3 mps 774 mmHg 58%
    15:00 +13°C° 0 mm 3 mps 774 mmHg 58%
    16:00 +12°C° 0 mm 3 mps 774 mmHg 64%
    17:00 +11°C° 0 mm 3 mps 773 mmHg 69%
    18:00 +10°C° 0 mm 3 mps 773 mmHg 74%
    19:00 +10°C° 0 mm 3 mps 774 mmHg 77%
    20:00 +9°C° 0 mm 3 mps 774 mmHg 80%
    21:00 +8°C° 0 mm 3 mps 774 mmHg 82%
    22:00 +8°C° 0 mm 3 mps 774 mmHg 84%
    23:00 +7°C° 0 mm 3 mps 774 mmHg 85%

    Tomorrow, 27 March, Wednesday

    Time Temperature Precipitation Wind Pressure Humidity
    00:00 +7°C° 0 mm 2 mps 774 mmHg 87%
    01:00 +7°C° 0 mm 3 mps 774 mmHg 87%
    02:00 +5°C° 0 mm 3 mps 774 mmHg 88%
    03:00 +5°C° 0 mm 3 mps 774 mmHg 89%
    04:00 +5°C° 0 mm 3 mps 774 mmHg 88%
    05:00 +5°C° 0 mm 4 mps 774 mmHg 86%
    06:00 +4°C° 0 mm 4 mps 774 mmHg 85%
    07:00 +6°C° 0 mm 4 mps 775 mmHg 81%
    08:00 +8°C° 0 mm 3 mps 775 mmHg 77%
    09:00 +9°C° 0 mm 3 mps 775 mmHg 73%
    10:00 +10°C° 0 mm 3 mps 775 mmHg 70%
    11:00 +12°C° 0 mm 2 mps 775 mmHg 66%
    12:00 +13°C° 0 mm 2 mps 775 mmHg 62%
    13:00 +14°C° 0 mm 2 mps 775 mmHg 62%
    14:00 +14°C° 0 mm 2 mps 775 mmHg 61%
    15:00 +15°C° 0 mm 2 mps 775 mmHg 60%
    16:00 +14°C° 0 mm 2 mps 775 mmHg 65%
    17:00 +13°C° 0 mm 2 mps 775 mmHg 70%
    18:00 +13°C° 0 mm 2 mps 775 mmHg 74%
    19:00 +12°C° 0 mm 2 mps 775 mmHg 77%
    20:00 +10°C° 0 mm 2 mps 776 mmHg 80%
    21:00 +9°C° 0 mm 2 mps 776 mmHg 83%
    22:00 +9°C° 0 mm 2 mps 776 mmHg 84%
    23:00 +8°C° 0 mm 2 mps 776 mmHg 85%

    Day after tomorrow, 28 March, Thursday

    Time Temperature Precipitation Wind Pressure Humidity
    00:00 +9°C° 0 mm 1 mps 776 mmHg 86%
    01:00 +8°C° 0 mm 2 mps 776 mmHg 87%
    02:00 +7°C° 0 mm 2 mps 776 mmHg 88%
    03:00 +7°C° 0 mm 3 mps 777 mmHg 89%
    04:00 +7°C° 0 mm 3 mps 777 mmHg 88%
    05:00 +5°C° 0 mm 3 mps 777 mmHg 87%
    06:00 +5°C° 0 mm 4 mps 777 mmHg 87%
    07:00 +6°C° 0 mm 4 mps 777 mmHg 82%
    08:00 +9°C° 0 mm 3 mps 777 mmHg 78%
    09:00 +10°C° 0 mm 3 mps 777 mmHg 73%
    10:00 +11°C° 0 mm 3 mps 777 mmHg 69%
    11:00 +13°C° 0 mm 2 mps 777 mmHg 65%
    12:00 +14°C° 0 mm 1 mps 777 mmHg 61%
    13:00 +15°C° 0 mm 1 mps 777 mmHg 60%
    14:00 +15°C° 0 mm 1 mps 776 mmHg 59%
    15:00 +16°C° 0 mm 1 mps 776 mmHg 59%
    16:00 +15°C° 0 mm 1 mps 776 mmHg 64%
    17:00 +13°C° 0 mm 2 mps 775 mmHg 69%
    18:00 +12°C° 0 mm 2 mps 775 mmHg 73%
    19:00 +10°C° 0 mm 2 mps 775 mmHg 77%
    20:00 +11°C° 0 mm 1 mps 776 mmHg 80%
    21:00 +10°C° 0 mm 1 mps 776 mmHg 83%
    22:00 +9°C° 0 mm 1 mps 776 mmHg 83%
    23:00 +9°C° 0 mm 1 mps 776 mmHg 83%

    29 March, Friday

    Time Temperature Precipitation Wind Pressure Humidity
    00:00 +9°C° 0 mm 1 mps 775 mmHg 83%
    01:00 +9°C° 0 mm 1 mps 775 mmHg 83%
    02:00 +9°C° 0 mm 1 mps 775 mmHg 84%
    03:00 +9°C° 0 mm 1 mps 775 mmHg 84%
    04:00 +7°C° 0 mm 2 mps 774 mmHg 85%
    05:00 +7°C° 0 mm 2 mps 774 mmHg 87%
    06:00 +7°C° 0 mm 2 mps 774 mmHg 88%
    07:00 +9°C° 0 mm 2 mps 774 mmHg 84%
    08:00 +10°C° 0 mm 2 mps 774 mmHg 81%
    09:00 +13°C° 0 mm 2 mps 774 mmHg 77%
    10:00 +13°C° 0 mm 2 mps 774 mmHg 75%
    11:00 +14°C° 0 mm 2 mps 773 mmHg 72%
    12:00 +15°C° 0 mm 2 mps 773 mmHg 69%
    13:00 +15°C° 0 mm 2 mps 773 mmHg 69%
    14:00 +15°C° 0 mm 2 mps 772 mmHg 69%
    15:00 +15°C° 0 mm 2 mps 772 mmHg 69%
    16:00 +14°C° 0 mm 2 mps 772 mmHg 73%
    17:00 +13°C° 0 mm 1 mps 771 mmHg 78%
    18:00 +12°C° 0 mm 1 mps 771 mmHg 82%
    19:00 +12°C° 0 mm 1 mps 771 mmHg 83%
    20:00 +11°C° 0 mm 1 mps 771 mmHg 85%
    21:00 +10°C° 0 mm 1 mps 771 mmHg 86%
    22:00 +10°C° 0 mm 1 mps 771 mmHg 86%
    23:00 +10°C° 0 mm 1 mps 771 mmHg 86%

    30 March, Saturday

    Time Temperature Precipitation Wind Pressure Humidity
    00:00 +10°C° 0 mm 1 mps 771 mmHg 86%
    01:00 +9°C° 0 mm 1 mps 771 mmHg 87%
    02:00 +8°C° 0 mm 2 mps 770 mmHg 87%
    03:00 +8°C° 0 mm 2 mps 770 mmHg 88%
    04:00 +8°C° 0 mm 2 mps 770 mmHg 89%
    05:00 +8°C° 0 mm 2 mps 770 mmHg 89%
    06:00 +8°C° 0 mm 2 mps 770 mmHg 90%
    07:00 +9°C° 0 mm 2 mps 770 mmHg 85%
    08:00 +10°C° 0 mm 2 mps 770 mmHg 81%
    09:00 +13°C° 0 mm 2 mps 770 mmHg 77%
    10:00 +14°C° 0 mm 2 mps 770 mmHg 74%
    11:00 +15°C° 0 mm 1 mps 769 mmHg 70%
    12:00 +16°C° 0 mm 1 mps 769 mmHg 67%
    13:00 +16°C° 0 mm 1 mps 769 mmHg 67%
    14:00 +16°C° 0 mm 1 mps 769 mmHg 67%
    15:00 +16°C° 0 mm 1 mps 769 mmHg 67%
    16:00 +15°C° 0 mm 2 mps 769 mmHg 70%
    17:00 +14°C° 0 mm 3 mps 769 mmHg 72%
    18:00 +13°C° 0 mm 4 mps 769 mmHg 75%
    19:00 +11°C° 0 mm 6 mps 770 mmHg 76%
    20:00 +10°C° 0 mm 8 mps 771 mmHg 78%
    21:00 +8°C° 0 mm 9 mps 771 mmHg 80%
    22:00 +7°C° 0 mm 10 mps 772 mmHg 77%
    23:00 +6°C° 0 mm 10 mps 772 mmHg 74%

    31 March, Sunday

    Time Temperature Precipitation Wind Pressure Humidity
    00:00 +5°C° 0 mm 10 mps 772 mmHg 72%
    01:00 +3°C° 0 mm 10 mps 772 mmHg 70%
    02:00 +3°C° 0 mm 10 mps 773 mmHg 69%
    03:00 +3°C° 0 mm 10 mps 773 mmHg 67%
    04:00 +2°C° 0 mm 10 mps 773 mmHg 68%
    05:00 +2°C° 0 mm 10 mps 773 mmHg 69%
    06:00 +2°C° 0 mm 10 mps 773 mmHg 69%
    07:00 +3°C° 0 mm 10 mps 774 mmHg 68%
    08:00 +3°C° 0 mm 10 mps 774 mmHg 66%
    09:00 +5°C° 0 mm 10 mps 774 mmHg 64%
    10:00 +6°C° 0 mm 10 mps 774 mmHg 63%
    11:00 +6°C° 0 mm 10 mps 774 mmHg 61%
    12:00 +6°C° 0 mm 10 mps 774 mmHg 59%
    13:00 +6°C° 0 mm 10 mps 773 mmHg 59%
    14:00 +7°C° 0 mm 10 mps 773 mmHg 60%
    15:00 +7°C° 0 mm 10 mps 773 mmHg 60%
    16:00 +6°C° 0 mm 10 mps 773 mmHg 61%
    17:00 +5°C° 0 mm 10 mps 773 mmHg 63%
    18:00 +3°C° 0 mm 10 mps 773 mmHg 64%
    19:00 +3°C° 0 mm 10 mps 773 mmHg 66%
    20:00 +2°C° 0 mm 10 mps 773 mmHg 68%
    21:00 +2°C° 0 mm 10 mps 773 mmHg 69%
    22:00 +1°C° 0 mm 9 mps 773 mmHg 70%
    23:00 +1°C° 0 mm 9 mps 773 mmHg 71%
    Show more